Flag for Switzerland Weather past 2 weeks in Yverdon-les-Bains, Vaud, Switzerland

Now
62 °F

Overcast.


Feels Like: 62 °F
Forecast: 39 / 68 °F
Wind: 2 mph from Northeast

Location: Payerne

Current Time: Aug 20, 2014 at 11:43:03 AM

Latest Report: Aug 20, 2014 at 11:00 AM


Visibility: 22 mi

Pressure: 30.00 "Hg

Humidity: 58%

Dew point: 47 °F

Location of Yverdon-les-BainsLocation

Historic Weather in Yverdon-les-Bains — Graph

°F

Yverdon-les-Bains temperature yesterday

Maximum temperature yesterday: 72 °F (at 5:00 PM)
Minimum temperature yesterday: 56 °F (at 3:00 AM)
Average temperature yesterday: 62 °F

Past Weeks' High & Low Weather Summary

 TemperatureHumidityPressure
High82 °F (Aug 8, 5:00 PM)100% (Aug 8, 6:00 AM)30.22 "Hg (Aug 8, 6:00 AM)
Low46 °F (Aug 17, 7:00 AM)35% (Aug 17, 4:00 PM)29.69 "Hg (Aug 13, 9:00 AM)
Average63 °F75%29.97 "Hg
* Reported Aug 5 10:00 AM — Aug 20 10:00 AM, Yverdon-les-Bains, Weather by CustomWeather, © 2014

Note: Actual official high and low records may vary slightly from our data, if they occured in-between our weather recording intervals... More about our weather records

Advertising

Yverdon-les-Bains weather history for previous 24 hours

 ConditionsComfort  
Time TempWeatherWind HumidityBarometerVisibility
10:00 AM
Aug 20
59 °FCool.2 mph74%30.01 "HgN/A
9:00 AM55 °FCool.1 mph85%30.03 "HgN/A
8:00 AM52 °FPartly sunny.2 mph87%30.03 "Hg22 mi
7:00 AM49 °FCool.1 mph93%30.04 "HgN/A
6:00 AM51 °FCool.2 mph91%30.03 "HgN/A
5:00 AM53 °FCool.3 mph85%30.03 "HgN/A
4:00 AM55 °FCool.3 mph79%30.03 "HgN/A
3:00 AM55 °FCool.1 mph88%30.02 "HgN/A
2:00 AM56 °FOvercast.2 mph80%30.01 "Hg19 mi
1:00 AM58 °FCool.1 mph82%30.01 "HgN/A
12:00 AM59 °FCool.2 mph76%30.01 "HgN/A
11:00 PM
Aug 19
59 °FOvercast.1 mph83%30.00 "Hg19 mi
10:00 PM60 °FCool.No wind76%29.98 "HgN/A
9:00 PM64 °FMild.2 mph55%29.95 "HgN/A
8:00 PM65 °FOvercast.5 mph53%29.93 "Hg18 mi
7:00 PM68 °FMild.3 mph47%29.90 "HgN/A
6:00 PM69 °FMild.5 mph47%29.90 "HgN/A
5:00 PM72 °FMild.8 mph42%29.88 "HgN/A
4:00 PM70 °FMild.9 mph44%29.88 "HgN/A
3:00 PM69 °FMild.10 mph49%29.88 "HgN/A
2:00 PM68 °FPartly sunny.6 mph53%29.88 "Hg22 mi
1:00 PM66 °FMild.6 mph57%29.90 "HgN/A
12:00 PM67 °FMild.3 mph54%29.91 "HgN/A
11:00 AM64 °FPartly sunny.6 mph63%29.92 "Hg22 mi
Weather by CustomWeather, © 2014

See weather overviewHow to use our weather pages